metlocid,date_time,avg_wspd,std_wspd,min_wspd,max_wspd,n_wspd,n_comments
FRSM,12/1/10,2.989842211,1.657006832,0.5,7.6,1014,1
FRSM,1/1/11,3.217943546,2.365642152,0.2,10.9,2976,0
FRSM,2/1/11,3.003125005,2.612643803,0,12.7,2688,1
FRSM,3/1/11,2.485920695,2.095823777,0,16.4,2976,9
FRSM,4/1/11,4.522361114,3.544296182,0,17.8,2880,12
FRSM,5/1/11,3.9890793,3.400888417,0,20.5,2976,2
FRSM,6/1/11,5.037569444,4.042541883,0,17.9,2880,2
FRSM,7/1/11,5.499563175,4.37843568,0,22.5,2976,3
FRSM,8/1/11,5.742271499,4.408122452,0,22,2976,3
FRSM,9/1/11,4.053784721,2.695501944,0.2,17.8,2880,0
FRSM,10/1/11,5.252822585,3.733045545,0,17.5,2976,4
FRSM,11/1/11,5.446701389,3.338337552,0.3,15.2,2880,0
FRSM,12/1/11,3.554095827,2.088182287,0,9.5,1294,2
FRSM,1/1/12,1.892165899,2.810559667,0,8.7,434,271
FRSM,2/1/12,0.482435346,1.836161216,0,14.7,2784,2474
FRSM,3/1/12,0.000638441,0.01476752,0,0.5,2976,2969
FRSM,4/1/12,0.472812503,2.656234613,0,21.7,2880,2723
FRSM,5/1/12,0.489415322,2.122270591,0,21.8,2976,2495
FRSM,6/1/12,0.847569443,3.266513231,0,22.7,2880,2593
FRSM,7/1/12,0.106653226,0.520009133,0,9.8,2976,2650
FRSM,8/1/12,0.193077957,1.030910079,0,15.9,2976,2742
FRSM,9/1/12,0.003576389,0.054760088,0,1.8,2880,2853
FRSM,10/1/12,0.000907258,0.030610321,0,1.6,2976,2969
FRSM,11/1/12,0.363090278,1.350147809,0,8.6,2880,2614
FRSM,12/1/12,2.727385755,2.360414302,0,13.6,2976,4
FRSM,1/1/13,3.458299729,2.410570211,0.1,13.5,2976,0
FRSM,2/1/13,2.965327382,2.727286244,0,14,2688,4
FRSM,3/1/13,3.971874998,3.520224207,0,25.3,2976,1
FRSM,4/1/13,2.966875001,2.456578092,0,21.1,2880,12
FRSM,5/1/13,3.932627686,3.35635766,0,19.8,2976,1
FRSM,6/1/13,4.625972224,3.554838947,0,16.1,2880,3
FRSM,7/1/13,4.459509409,4.002698712,0,22.7,2976,4
FRSM,8/1/13,5.218850803,4.068025444,0,22.4,2976,4
FRSM,9/1/13,4.927534723,3.749009205,0.2,22.7,2880,0
FRSM,10/1/13,3.951646506,3.788306289,0,19.2,2976,1
FRSM,11/1/13,5.725416667,4.21931003,0.2,17.9,2880,914
FRSM,12/1/13,4.519166107,2.797979155,0.1,14,2974,2974
FRSM,1/1/14,4.352795159,3.461994966,0.07,15.5,2973,2973
FRSM,2/1/14,4.180391209,3.654331647,0.1,18.08,2684,2684
FRSM,3/1/14,2.864662186,2.139064484,0.08,13.16,2975,2975
FRSM,4/1/14,5.35220487,3.75069636,0.23,19.33,2880,2880
FRSM,5/1/14,6.924460138,5.229081806,0.06,22.96,2973,2973
FRSM,6/1/14,5.681956901,4.587005425,0.07,22.58,2877,2877
FRSM,7/1/14,4.700407408,4.557980158,0.06,24.51,2970,2970
FRSM,8/1/14,8.353706326,5.674136676,0.19,24.9,2976,2976
FRSM,9/1/14,5.778523795,4.226169248,0.11,22.14,2879,2879
FRSM,10/1/14,6.832071982,6.201573058,0.06,26.13,2973,2973
FRSM,11/1/14,3.391746525,2.665780498,0.21,14.2,2880,2880
FRSM,12/1/14,4.055394957,2.563016978,0.28,12.81,2975,2975
FRSM,1/1/15,3.563222447,2.599878332,0,12.84,2976,2976
FRSM,2/1/15,5.010014883,4.224333571,0,20.31,2688,2688
FRSM,3/1/15,2.841713712,1.61832349,0,12.39,2976,2976
FRSM,4/1/15,4.988291664,4.655782801,0,24.4,2880,2880
FRSM,5/1/15,3.60888777,2.729096235,0.05,19.29,2976,2976
FRSM,6/1/15,4.377788195,4.397691334,0,30.26,2880,2880
FRSM,7/1/15,5.260870298,4.281149347,0.01,22.87,2976,2976
FRSM,8/1/15,5.549324596,4.791740637,0,22.9,2976,2976
FRSM,9/1/15,5.325333336,3.990059004,0.24,26.99,2880,2880
FRSM,10/1/15,7.142550403,6.221803049,0,26.55,2976,2976
FRSM,11/1/15,5.747222224,4.239785806,0,19.51,2880,2880
FRSM,12/1/15,5.014242016,4.01532278,0,18.11,2975,77
FRSM,1/1/16,5.911367608,3.741361746,0,17.14,2976,0
FRSM,2/1/16,3.573581179,3.162852583,0,17.02,2784,0
FRSM,3/1/16,2.987079973,2.463765642,0,16.72,2976,0
FRSM,4/1/16,3.03707986,2.263757548,0,14.3,2880,0
FRSM,5/1/16,4.260067203,3.122741857,0.05,19.13,2976,0
FRSM,6/1/16,4.644045147,4.310243512,0,21.58,2880,0
FRSM,7/1/16,3.454341399,2.453094436,0,15.93,2976,0
FRSM,8/1/16,5.314418676,5.143784006,0,27.56,2976,0
FRSM,9/1/16,4.21445486,3.304021593,0,20.77,2880,0
FRSM,10/1/16,3.904963038,3.212604033,0.06,17.42,2976,0
FRSM,11/1/16,5.665381945,4.253722031,0.05,18.95,2880,0
FRSM,12/1/16,5.387828568,3.575211052,0,17.14,2975,0
FRSM,1/1/17,3.870456988,2.385458831,0.37,11.48,2976,0
FRSM,2/1/17,4.058407739,2.652372833,0.34,13.12,2688,0
FRSM,3/1/17,2.589969761,1.962239001,0,12.17,2976,0
FRSM,4/1/17,2.831111113,1.612031254,0,10.91,2880,0
FRSM,5/1/17,5.461444897,4.578545255,0,25.97,2976,0
FRSM,6/1/17,4.928597222,3.92146687,0.02,19.03,2880,0
FRSM,7/1/17,4.950846781,4.390548736,0,22.46,2976,0
FRSM,8/1/17,4.775352824,4.248282296,0,18.28,2976,0
FRSM,9/1/17,3.293944443,2.387712273,0,16.02,2880,0
FRSM,10/1/17,6.222066534,4.193770378,0.02,18.86,2976,0
FRSM,11/1/17,4.926417653,3.961164622,0.15,18.5,2878,0
FRSM,12/1/17,3.710020163,2.895179498,0.24,15.16,2976,0
FRSM,1/1/18,3.70343078,2.797315936,0.11,13.07,2976,0
FRSM,2/1/18,2.661119791,1.97924767,0.17,12.01,2688,0
FRSM,3/1/18,4.195359545,4.054925857,0,19.3,2976,0
FRSM,4/1/18,4.08253125,3.191705406,0,23.24,2880,0
FRSM,5/1/18,4.027718412,4.038559803,0,19.28,2976,0
FRSM,6/1/18,5.29235764,4.424497854,0,21.85,2880,0
FRSM,7/1/18,5.162308465,4.559420212,0,25.19,2976,0
FRSM,8/1/18,4.86484543,4.730373125,0.01,23.93,2976,0
FRSM,9/1/18,5.094104171,4.228127472,0,20.18,2880,0
FRSM,10/1/18,6.626233198,4.509043265,0.06,20.11,2976,0
FRSM,11/1/18,4.384270837,3.935158758,0.07,19.45,2880,0
FRSM,12/1/18,6.138914654,3.889367617,0.4,20.93,2976,0
FRSM,1/1/19,3.29121976,2.391380832,0.11,12.3,2976,0
FRSM,2/1/19,3.665163691,2.955275798,0,15.3,2688,0
FRSM,3/1/19,3.707879702,3.047383184,0,15.7,2976,0
FRSM,4/1/19,4.276482639,3.596036764,0,18.4,2880,0
FRSM,5/1/19,4.962237901,4.099670882,0,19.05,2976,0
FRSM,6/1/19,5.682173608,4.465021488,0.09,22.56,2880,0
FRSM,7/1/19,5.261774196,4.271740693,0,21.74,2976,0
FRSM,8/1/19,5.303622314,3.986740426,0,19.62,2976,0
FRSM,9/1/19,4.927614585,4.177328555,0,20.88,2880,0
FRSM,10/1/19,3.396202958,3.19479644,0,18.11,2976,0
FRSM,11/1/19,5.216513887,3.764879406,0.38,20.36,2880,0
FRSM,12/1/19,4.578980472,3.703130785,0,17.21,2970,0
FRSM,1/1/20,3.208712703,2.136928387,0.149,12.51,2976,0
FRSM,2/1/20,3.836988866,3.01752191,0,16.24,2784,0
FRSM,3/1/20,2.540101816,1.905048096,0,12.51,2976,0
FRSM,4/1/20,4.970476044,3.436476161,0.014,20.14,2880,0
FRSM,5/1/20,3.766442538,2.820887352,0.028,19.71,2976,0
FRSM,6/1/20,7.025534372,4.952199457,0,21.6,2880,0
FRSM,7/1/20,4.980479502,4.654659297,0,21.5,2976,0
FRSM,8/1/20,7.410756054,5.221455211,0,23.19,2976,0
FRSM,9/1/20,5.076724653,4.185647296,0.058,21.99,2880,0
FRSM,10/1/20,4.533647174,3.440566912,0,20.63,2976,0
FRSM,11/1/20,4.571390625,3.270256645,0.152,13.85,2880,0
FRSM,12/1/20,5.258410285,3.337469067,0.145,13.69,2976,0
FRSM,1/1/21,5.783355515,3.851263148,0.254,19.85,2976,0
FRSM,2/1/21,3.858904388,3.15855634,0,15.35,2688,0
FRSM,3/1/21,3.669016802,3.602337527,0,20.3,2976,0
FRSM,4/1/21,3.298922918,2.567754422,0,15.07,2880,0
FRSM,5/1/21,4.586143819,3.844309176,0,17.68,2976,0
FRSM,6/1/21,5.681156253,3.934123986,0.171,20.19,2880,0
FRSM,7/1/21,4.842934142,4.677759178,0,24.45,2976,0
FRSM,8/1/21,4.613363569,3.984659555,0,27.04,2976,0
FRSM,9/1/21,4.481070484,4.554054846,0,20.91,2880,0
FRSM,10/1/21,5.787531583,4.523136718,0,27.63,2976,0
FRSM,11/1/21,4.69013681,3.966924873,0.051,20.63,2880,0
FRSM,12/1/21,4.846400271,3.044580709,0,15.55,2973,0
FRSM,1/1/22,3.952646502,3.06416592,0.15,14.46,2976,0
FRSM,2/1/22,3.991291666,3.774872198,0.115,17.73,2688,0
FRSM,3/1/22,4.6947789,4.4643863,0.007,23.97,2976,0
FRSM,4/1/22,3.348723266,2.6036616,0,15.3,2880,0
FRSM,5/1/22,6.777975143,4.581162244,0.065,22.58,2976,0
FRSM,6/1/22,4.934837498,4.233116499,0,20.11,2880,0
FRSM,7/1/22,5.979979502,4.425399999,0.152,21.02,2976,0
FRSM,8/1/22,5.870357524,4.679887617,0.194,23.54,2976,0
FRSM,9/1/22,5.506015632,4.295839279,0.093,20.26,2880,0
FRSM,10/1/22,4.993692209,4.813756525,0.081,24.3,2976,0
FRSM,11/1/22,3.058178818,2.117200717,0.268,11.03,2880,0
FRSM,12/1/22,5.411120662,2.959800298,0.602,16.25,1757,0